星链-3103 (STARLINK-3103 )

导读

STARLINK-3103是美国太空探索技术公司(SpaceX)星链(Starlink)互联网星座中的一颗卫星,于2021年9月14日发射入轨,属于星链项目扩容阶段的发射任务,主要为全球提供高速低延迟卫星互联网服务,尤其覆盖偏远地区、海洋等地面网络难以抵达的区域,支撑星链星座的全球组网与服务能力,是SpaceX推进卫星互联网布局的重要组成部分。

基本信息
目录编号:
49177
目录名称:
STARLINK-3103
国际标识:
2021-082AZ
轨道中心:
EARTH
卫星名称:
星链-3103
卫星全名:
星链-3103 (STARLINK-3103 )
卫星状态:
在轨 (已飞行1817 天)
发射日期:
2021-09-14 UTC
国别 :
美国 (US)
星等 :
--
轨道信息
数据来源 国际轨道数据
星历时间: 2026-09-05T02:37:48+0800
9小时前
查看轨道信息
半长轴: 6950.186km
偏心率: 0.0002956
轨道倾角: 70.000°
近地点辐角 271.643°
升交点赤经 162.919°
平近点角 88.439°
近地点: 569.994km
远地点: 574.104km
周期: 96.107分钟
每日圈数: 14.983324
详细信息
固有亮度:
5
最大亮度:
2.5
卫星平台:
Starlink v1.5
覆盖范围:
全球
运营商:
太空探索技术公司
运营商所在国:
美国
制造商(研发单位):
太空探索技术公司
制造商所在国:
美国
使用方式:
暂无
卫星简介
星链(Starlink)计划是由太空探索技术公司(SpaceX)提出的一个巨型低轨卫星互联网星座项目,计划在2019年至2024年间在太空搭建由约1.2万颗卫星组成的“星链”网络,其中1584颗将部署在地球上空550千米处的近地轨道,并从2020年开始工作。该卫星仍在工作。
2D轨道图
3D轨道图
轨道高度分析图
轨道倾角分析图
轨道综合分析图
查看轨道综合分析图
交会数据列表
事件ID 空间交会对象 最接近时刻(TCA) 交会距离 交会风险概率(CRP) 交会风险指数(CRI) 操作
CDM_260905-084403-976904-917725
RISING 2 (39769)
2026-09-05T
08:44:58+0000
2.193 km
极远距离
2.277333E-6 低风险 0.42
CDM_260906-133202-794204-917723
UK-DMC (27942)
2026-09-06T
13:32:30+0000
2.331 km
极远距离
1.578698E-6 低风险 0.39